[[{"header":{"parameterUnit":"m.s-1","parameterCategory":1,"la1":30.2991,"la2":30.254,"lo1":-89.0895,"lo2":-89.0444,"dy":0.0017,"dx":0.0017,"nx":28,"ny":28,"refTime":"2023-09-12T09:00:00:Z","depth":0,"parameterNumber":2,"parameterNumberName":"U-component_of_WINDS"},"data":[0,0,0,0,0,0,0,0,0,0,0,0,0,0,0,0,0,0,0,0,0,0,0,0,0,0,0,0,0,0,0,0,0,0,0,0,0,0,0,0,0,0,0,0,0,0,0,0,0,0,0,0,0,0,0,0,0,0,1.8749,1.8749,0,1.8731,1.8731,1.8731,1.8681,1.8679,1.8678,1.8677,1.8659,1.8659,1.866,0,0,0,0,0,0,0,0,0,0,0,0,0,1.874,1.874,1.8749,1.8749,1.8749,1.8731,1.8731,1.8731,1.8681,1.8679,1.8678,1.8677,1.8659,1.8659,1.866,0,0,0,0,0,0,0,0,0,0,0,0,0,1.8735,1.874,1.8749,1.8722,1.8719,1.8731,1.8731,1.873,1.8681,1.8679,1.8678,1.8676,1.8659,1.8659,1.866,1.8697,0,0,1.8662,1.8663,0,0,0,0,0,0,0,0,1.8735,1.8735,1.8726,1.8723,1.8721,1.8706,1.8721,1.8719,1.8681,1.8695,1.8677,1.8675,1.8676,1.8675,1.8675,1.8697,1.8696,1.8663,1.8663,1.8663,1.8664,0,0,0,0,0,0,0,1.8736,1.8736,1.8742,1.8726,1.8723,1.871,1.8707,1.872,1.8695,1.8694,1.869,1.8689,1.8674,1.8675,1.8675,1.8695,1.8662,1.8663,1.8664,1.8664,1.8744,1.8746,0,0,0,0,0,0,1.874,1.8736,1.8742,1.8741,1.8724,1.8711,1.8709,1.8713,1.8695,1.869,1.869,1.8687,1.8674,1.8674,1.8674,1.8714,1.8663,1.8664,1.8664,1.8743,1.8745,1.8746,0,0,0,0,0,0,1.874,1.8741,1.8743,1.8738,1.8737,1.8713,1.8718,1.8713,1.8713,1.8692,1.8687,1.8695,1.8673,1.8673,1.8691,1.8713,1.8664,1.8665,1.8741,1.8743,1.8745,1.8797,0,0,0,0,0,0,1.874,1.8741,1.8755,1.8739,1.8738,1.8761,1.8719,1.8714,1.8715,1.871,1.8696,1.8692,1.8672,1.8691,1.8692,1.8713,1.8666,1.8738,1.8742,1.8745,1.8793,1.8801,1.8807,0,0,0,0,0,1.874,1.8771,1.8756,1.8757,1.8755,1.8763,1.8762,1.8739,1.8717,1.873,1.8717,1.8692,1.8711,1.8693,1.8694,1.8716,1.8737,1.8741,1.8744,1.879,1.8799,1.8807,0,0,0,0,0,0,1.8791,1.8768,1.8752,1.8778,1.8773,1.8754,1.877,1.875,1.875,1.8745,1.8716,1.8713,1.8736,1.8728,1.8708,1.875,1.872,1.8724,1.8754,1.8762,1.877,1.877,1.8666,0,0,0,0,0,1.8805,1.8814,1.8794,1.8819,1.8817,1.8795,1.8797,1.878,1.8773,1.877,1.8757,1.8751,1.8756,1.8759,1.8762,1.8793,1.8787,1.8808,1.8815,1.8821,1.8824,1.8838,1.8846,1.8759,1.8759,1.8759,0,0,1.8835,1.8824,1.8831,1.8829,1.8823,1.8831,1.8793,1.8804,1.881,1.8772,1.8787,1.8779,1.877,1.8794,1.8804,1.8788,1.8848,1.8826,1.8831,1.8831,1.8842,1.885,1.8858,1.8761,1.8761,1.876,0,0,1.8893,1.8886,1.8905,1.89,1.889,1.8875,1.888,1.8865,1.8857,1.8873,1.8844,1.8851,1.8859,1.8854,1.8852,1.8908,1.8884,1.891,1.8946,1.896,1.8966,1.8972,1.899,1.8997,1.8914,1.8914,1.8914,0,1.8931,1.8943,1.8918,1.8931,1.893,1.8896,1.8915,1.8911,1.8903,1.8903,1.8886,1.8895,1.8887,1.8908,1.8922,1.8923,1.8926,1.891,1.8968,1.8973,1.8978,1.8994,1.9001,1.8917,1.8917,1.8916,1.8916,0,1.8988,1.8997,1.9014,1.9007,1.9008,1.9024,1.9002,1.9007,1.8989,1.8976,1.8992,1.8981,1.898,1.8985,1.8968,1.9003,1.8994,1.8973,1.8941,1.899,1.9004,1.9011,1.8921,1.892,1.8919,1.8918,0,0,1.9076,1.9055,1.9061,1.9057,1.9044,1.905,1.9065,1.9064,1.9067,1.9064,1.9074,1.9082,1.9062,1.906,1.9043,1.9055,1.9097,1.9032,1.9032,1.9042,1.9132,1.9146,1.9154,1.9083,1.9084,1.9085,1.9132,0,1.9128,1.915,1.9129,1.9155,1.9162,1.913,1.9142,1.9136,1.9124,1.9128,1.9115,1.912,1.9095,1.9093,1.9104,1.909,1.9114,1.9087,1.909,1.909,1.909,1.9162,1.9177,1.9222,1.9138,1.9139,1.914,0,1.9192,1.919,1.9217,1.9201,1.9203,1.9215,1.9211,1.9216,1.9208,1.9198,1.9196,1.9175,1.9188,1.9159,1.9174,1.9156,1.9156,1.915,1.9151,1.9148,1.9116,1.9158,1.9236,1.9242,1.9149,1.9148,1.9148,0,1.9249,1.9254,1.927,1.9268,1.9251,1.9259,1.9253,1.9243,1.9244,1.9241,1.9241,1.9241,1.924,1.924,1.9219,1.92,1.9236,1.9206,1.9227,1.9227,1.9233,1.9233,1.9309,1.9239,1.9239,1.9239,1.9238,0,1.9308,1.9325,1.9296,1.9305,1.9323,1.9299,1.9317,1.9307,1.9299,1.9305,1.9279,1.9286,1.9259,1.9263,1.9248,1.9261,1.9262,1.9253,1.9248,1.9254,1.9255,1.9252,1.9247,1.924,1.924,1.924,1.9239,0,1.9374,1.9356,1.937,1.9353,1.935,1.9363,1.9348,1.9356,1.9343,1.9352,1.9352,1.9332,1.9335,1.9315,1.9315,1.9304,1.9324,1.9315,1.9327,1.9323,1.9343,1.9341,1.9419,1.9427,1.9354,1.9355,1.9355,0,1.9411,1.9423,1.9408,1.941,1.9405,1.9409,1.941,1.9387,1.9388,1.9379,1.9388,1.9389,1.9388,1.9395,1.9379,1.9378,1.9368,1.9395,1.9367,1.9372,1.9365,1.9363,1.9363,1.94,1.9401,1.9401,1.9402,0,1.9479,1.9469,1.947,1.9468,1.9469,1.9466,1.9462,1.9466,1.944,1.9443,1.9446,1.9446,1.9445,1.9446,1.9442,1.9435,1.9414,1.9411,1.9416,1.942,1.9425,1.942,1.9339,1.9409,1.9408,1.9408,1.9407,1.9407,1.9529,1.9538,1.9528,1.953,1.9524,1.9521,1.9526,1.9514,1.9516,1.9513,1.95,1.9505,1.9496,1.9488,1.9483,1.9486,1.9473,1.948,1.9481,1.9482,1.9485,1.9427,1.9486,1.9486,1.9486,1.9485,1.9485,0,1.9592,1.9584,1.9587,1.9581,1.9583,1.9564,1.9558,1.956,1.9565,1.9558,1.9558,1.9561,1.9561,1.9546,1.9545,1.955,1.954,1.955,1.9548,1.9546,1.9498,1.9493,1.9558,1.9558,1.9558,1.9558,1.9558,1.9558,1.9625,1.9638,1.9627,1.9637,1.9629,1.9633,1.9631,1.9627,1.9621,1.9625,1.9626,1.9616,1.9606,1.9603,1.9603,1.9598,1.9598,1.961,1.9602,1.9557,1.955,1.9543,1.9538,1.9611,1.9611,1.965,1.965,1.9651]},{"header":{"parameterUnit":"m.s-1","parameterCategory":1,"la1":30.2991,"la2":30.254,"lo1":-89.0895,"lo2":-89.0444,"dy":0.0017,"dx":0.0017,"nx":28,"ny":28,"refTime":"2023-09-12T09:00:00:Z","depth":0,"parameterNumber":3,"parameterNumberName":"V-component_of_WINDS"},"data":[0,0,0,0,0,0,0,0,0,0,0,0,0,0,0,0,0,0,0,0,0,0,0,0,0,0,0,0,0,0,0,0,0,0,0,0,0,0,0,0,0,0,0,0,0,0,0,0,0,0,0,0,0,0,0,0,0,0,2.1422,2.1424,0,2.1608,2.161,2.1612,2.1625,2.1623,2.1621,2.1619,2.181,2.1817,2.1824,0,0,0,0,0,0,0,0,0,0,0,0,0,2.1075,2.1081,2.1421,2.1424,2.1426,2.1607,2.161,2.1613,2.1626,2.1623,2.1621,2.1618,2.1808,2.1816,2.1824,0,0,0,0,0,0,0,0,0,0,0,0,0,2.124,2.1083,2.1421,2.1454,2.1459,2.1607,2.161,2.1613,2.1626,2.1623,2.162,2.1617,2.1805,2.1815,2.1825,2.1952,0,0,2.1857,2.1862,0,0,0,0,0,0,0,0,2.123,2.1252,2.1447,2.1452,2.1458,2.159,2.1558,2.1727,2.1627,2.1563,2.1619,2.1616,2.1739,2.1755,2.1797,2.1961,2.1969,2.1858,2.1865,2.1869,2.1872,0,0,0,0,0,0,0,2.1219,2.1244,2.1495,2.145,2.1457,2.1459,2.1479,2.159,2.1666,2.1568,2.157,2.1592,2.1742,2.1787,2.1801,2.1972,2.1858,2.1867,2.1874,2.1878,2.2248,2.2251,0,0,0,0,0,0,2.1201,2.1235,2.1489,2.1501,2.1334,2.1468,2.1491,2.1551,2.1665,2.1679,2.1594,2.1591,2.177,2.1789,2.1808,2.1963,2.1869,2.1879,2.1885,2.2244,2.2248,2.2252,0,0,0,0,0,0,2.1194,2.1224,2.1482,2.1368,2.1401,2.1478,2.1545,2.1556,2.1601,2.1685,2.1698,2.1626,2.1768,2.1793,2.1916,2.197,2.1884,2.1893,2.224,2.2245,2.225,2.2274,0,0,0,0,0,0,2.1184,2.1221,2.1271,2.1369,2.1407,2.1587,2.1549,2.1562,2.1619,2.1618,2.1718,2.1732,2.1768,2.19,2.1926,2.1983,2.1902,2.2235,2.2242,2.2249,2.2269,2.2279,2.2289,0,0,0,0,0,2.1171,2.127,2.1273,2.1304,2.1471,2.159,2.1612,2.1652,2.1624,2.1674,2.1727,2.1729,2.1959,2.1912,2.1942,2.2002,2.2232,2.224,2.2248,2.2264,2.2277,2.2288,0,0,0,0,0,0,2.1177,2.1284,2.1288,2.1422,2.1497,2.1592,2.1657,2.1664,2.1749,2.1744,2.1789,2.1812,2.1932,2.198,2.1926,2.213,2.2093,2.2107,2.2095,2.2108,2.2118,2.2104,2.191,0,0,0,0,0,2.1193,2.1282,2.137,2.148,2.1517,2.158,2.1634,2.1658,2.1737,2.1769,2.1831,2.1907,2.1997,2.2055,2.2142,2.2275,2.2297,2.2331,2.2341,2.2349,2.236,2.2433,2.2449,2.2278,2.2278,2.2278,0,0,2.1229,2.1299,2.1352,2.1483,2.1544,2.1633,2.1607,2.1703,2.177,2.1783,2.1902,2.195,2.2039,2.2166,2.2226,2.221,2.2412,2.2359,2.2364,2.2372,2.2442,2.2458,2.2473,2.2283,2.2283,2.2282,0,0,2.134,2.1402,2.1499,2.156,2.1652,2.1693,2.1716,2.181,2.1842,2.1962,2.1973,2.2053,2.2206,2.2268,2.232,2.2451,2.2455,2.2478,2.253,2.26,2.2613,2.2625,2.2671,2.2687,2.2489,2.2489,2.2489,0,2.1373,2.1509,2.1548,2.1644,2.17,2.1716,2.1814,2.1871,2.1986,2.2025,2.2004,2.2196,2.2257,2.2399,2.243,2.2472,2.2499,2.2467,2.2608,2.262,2.2632,2.2676,2.2694,2.2491,2.2491,2.2491,2.2491,0,2.1544,2.1637,2.1705,2.1815,2.1879,2.1976,2.2029,2.2089,2.2106,2.2149,2.227,2.2343,2.2444,2.2479,2.2498,2.2623,2.261,2.2598,2.2562,2.265,2.2692,2.2709,2.2494,2.2494,2.2493,2.2492,0,0,2.1665,2.1794,2.1818,2.1868,2.1969,2.2042,2.2138,2.2236,2.2286,2.2365,2.2446,2.2574,2.2563,2.2622,2.2647,2.2708,2.2806,2.2689,2.2692,2.2707,2.2947,2.2955,2.2974,2.2809,2.2812,2.2815,2.2939,0,2.1787,2.1959,2.1996,2.2144,2.223,2.2244,2.2327,2.2398,2.2439,2.2518,2.2564,2.2654,2.2633,2.2668,2.273,2.2781,2.2854,2.2772,2.2884,2.2888,2.2862,2.2996,2.3006,2.312,2.2956,2.2959,2.2961,0,2.1952,2.2033,2.219,2.2277,2.2315,2.2389,2.2481,2.2556,2.2636,2.2662,2.2725,2.2744,2.2843,2.2801,2.2938,2.2881,2.2929,2.296,2.2966,2.2978,2.293,2.3012,2.3157,2.3174,2.2987,2.2985,2.2983,0,2.2024,2.2172,2.2284,2.2326,2.2432,2.2483,2.2529,2.2606,2.2662,2.2742,2.2779,2.2869,2.2919,2.2989,2.303,2.2996,2.3163,2.3125,2.3187,2.3186,2.3222,2.322,2.3377,2.3253,2.3253,2.3252,2.3252,0,2.2156,2.2251,2.2318,2.2387,2.2493,2.2534,2.2637,2.2683,2.275,2.2828,2.2846,2.2918,2.2968,2.3047,2.3081,2.3188,2.321,2.3234,2.3241,2.3232,2.3229,2.3264,2.3257,2.3257,2.3256,2.3255,2.3254,0,2.2254,2.2303,2.2426,2.2515,2.2539,2.2613,2.2689,2.2756,2.2797,2.2895,2.292,2.2984,2.3078,2.3126,2.3243,2.3265,2.3386,2.3389,2.3359,2.3362,2.3421,2.3415,2.3607,2.3634,2.3492,2.3493,2.3494,0,2.2335,2.2408,2.2504,2.2557,2.2604,2.2689,2.2746,2.2788,2.2847,2.2941,2.2996,2.3091,2.3169,2.3317,2.3374,2.3463,2.3469,2.353,2.3482,2.347,2.3469,2.3464,2.3471,2.3538,2.354,2.3541,2.3542,0,2.2474,2.2493,2.2575,2.2664,2.2731,2.2804,2.2875,2.2917,2.2971,2.3035,2.3131,2.3191,2.331,2.3403,2.3496,2.3543,2.3551,2.3556,2.3575,2.3566,2.3546,2.3557,2.3382,2.3552,2.3551,2.355,2.3549,2.3549,2.2566,2.2631,2.2708,2.2797,2.2855,2.292,2.2987,2.3036,2.3116,2.3216,2.3235,2.3336,2.3412,2.3537,2.3587,2.3666,2.3653,2.368,2.3687,2.3694,2.3696,2.3533,2.3683,2.3683,2.3682,2.3682,2.3682,0,2.2704,2.2754,2.2836,2.2934,2.3004,2.3005,2.3083,2.3142,2.323,2.33,2.3375,2.3484,2.3574,2.3637,2.3728,2.3779,2.3785,2.3801,2.3798,2.3809,2.3703,2.3677,2.3795,2.3795,2.3795,2.3795,2.3795,2.3795,2.2785,2.2894,2.2922,2.306,2.3109,2.3207,2.3252,2.3312,2.3368,2.3488,2.3562,2.3603,2.3669,2.3765,2.3847,2.3863,2.3896,2.3912,2.3928,2.3828,2.3816,2.3805,2.3781,2.3919,2.3919,2.4028,2.4029,2.4029]}]]